Time,TemperatureF,DewpointF,PressureIn,WindDirection,WindDirectionDegrees,WindSpeedMPH,WindSpeedGustMPH,Humidity,HourlyPrecipIn,Conditions,Clouds,dailyrainin,SoftwareType,DateUTC
2013-02-19 00:00:00,42.1,28.4,30.12,North,0,0.0,0.0,58,0.00,,,0.00,WUHU216HW,2013-02-19 05:00:00,
2013-02-19 00:01:00,42.1,28.4,30.12,North,0,0.0,0.0,58,0.00,,,0.00,WUHU216HW,2013-02-19 05:01:00,
2013-02-19 00:06:00,42.1,28.8,30.11,North,0,0.0,0.0,59,0.00,,,0.00,WUHU216HW,2013-02-19 05:06:00,
2013-02-19 00:12:00,41.9,28.6,30.11,North,0,0.0,0.0,59,0.00,,,0.00,WUHU216HW,2013-02-19 05:12:00,
2013-02-19 00:17:00,41.8,28.4,30.11,North,0,0.0,0.0,59,0.00,,,0.00,WUHU216HW,2013-02-19 05:17:00,
2013-02-19 00:22:00,41.8,28.4,30.11,North,0,0.0,0.0,59,0.00,,,0.00,WUHU216HW,2013-02-19 05:22:00,
2013-02-19 00:27:00,41.6,28.7,30.11,North,0,0.0,0.0,60,0.00,,,0.00,WUHU216HW,2013-02-19 05:27:00,
2013-02-19 00:32:00,41.4,28.6,30.10,North,0,0.0,0.0,60,0.00,,,0.00,WUHU216HW,2013-02-19 05:32:00,
2013-02-19 00:37:00,41.4,28.6,30.10,North,0,0.0,0.0,60,0.00,,,0.00,WUHU216HW,2013-02-19 05:37:00,
2013-02-19 00:42:00,41.2,28.8,30.10,North,0,0.0,0.0,61,0.00,,,0.00,WUHU216HW,2013-02-19 05:42:00,
2013-02-19 00:47:00,41.0,28.6,30.11,North,0,0.0,0.0,61,0.00,,,0.00,WUHU216HW,2013-02-19 05:47:00,
2013-02-19 00:52:00,40.7,28.3,30.11,North,0,0.0,0.0,61,0.00,,,0.00,WUHU216HW,2013-02-19 05:52:00,
2013-02-19 00:57:00,40.5,28.4,30.11,North,0,0.0,0.0,62,0.00,,,0.00,WUHU216HW,2013-02-19 05:57:00,
2013-02-19 01:02:00,40.3,28.3,30.11,North,0,0.0,0.0,62,0.00,,,0.00,WUHU216HW,2013-02-19 06:02:00,
2013-02-19 01:07:00,40.3,28.3,30.10,North,0,0.0,0.0,62,0.00,,,0.00,WUHU216HW,2013-02-19 06:07:00,
2013-02-19 01:13:00,40.1,28.5,30.10,North,0,0.0,0.0,63,0.00,,,0.00,WUHU216HW,2013-02-19 06:13:00,
2013-02-19 01:18:00,40.0,28.4,30.10,North,0,0.0,0.0,63,0.00,,,0.00,WUHU216HW,2013-02-19 06:18:00,
2013-02-19 01:23:00,39.8,28.2,30.09,North,0,0.0,0.0,63,0.00,,,0.00,WUHU216HW,2013-02-19 06:23:00,
2013-02-19 01:28:00,39.6,28.0,30.09,North,0,0.0,0.0,63,0.00,,,0.00,WUHU216HW,2013-02-19 06:28:00,
2013-02-19 01:33:00,39.6,28.0,30.09,North,0,0.0,0.0,63,0.00,,,0.00,WUHU216HW,2013-02-19 06:33:00,
2013-02-19 01:38:00,39.2,27.6,30.09,North,0,0.0,0.0,63,0.00,,,0.00,WUHU216HW,2013-02-19 06:38:00,
2013-02-19 01:43:00,39.2,27.6,30.09,North,0,0.0,0.0,63,0.00,,,0.00,WUHU216HW,2013-02-19 06:43:00,
2013-02-19 01:48:00,39.1,27.5,30.08,North,0,0.0,0.0,63,0.00,,,0.00,WUHU216HW,2013-02-19 06:48:00,
2013-02-19 01:53:00,38.9,27.3,30.08,North,0,0.0,0.0,63,0.00,,,0.00,WUHU216HW,2013-02-19 06:53:00,
2013-02-19 01:58:00,38.9,27.6,30.08,North,0,0.0,0.0,64,0.00,,,0.00,WUHU216HW,2013-02-19 06:58:00,
2013-02-19 02:03:00,38.7,27.5,30.07,North,0,0.0,0.0,64,0.00,,,0.00,WUHU216HW,2013-02-19 07:03:00,
2013-02-19 02:08:00,38.7,27.5,30.07,North,0,0.0,0.0,64,0.00,,,0.00,WUHU216HW,2013-02-19 07:08:00,
2013-02-19 02:13:00,38.7,27.5,30.07,North,0,0.0,0.0,64,0.00,,,0.00,WUHU216HW,2013-02-19 07:13:00,
2013-02-19 02:18:00,38.5,27.4,30.07,North,0,0.0,0.0,64,0.00,,,0.00,WUHU216HW,2013-02-19 07:18:00,
2013-02-19 02:23:00,38.5,27.4,30.07,North,0,0.0,0.0,64,0.00,,,0.00,WUHU216HW,2013-02-19 07:23:00,
2013-02-19 02:29:00,38.5,27.4,30.06,North,0,0.0,0.0,64,0.00,,,0.00,WUHU216HW,2013-02-19 07:29:00,
2013-02-19 02:34:00,38.5,27.7,30.05,North,0,0.0,0.0,65,0.00,,,0.00,WUHU216HW,2013-02-19 07:34:00,
2013-02-19 02:39:00,38.5,27.7,30.05,North,0,0.0,0.0,65,0.00,,,0.00,WUHU216HW,2013-02-19 07:39:00,
2013-02-19 02:44:00,38.5,27.7,30.05,North,0,0.0,0.0,65,0.00,,,0.00,WUHU216HW,2013-02-19 07:44:00,
2013-02-19 02:49:00,38.5,27.7,30.04,North,0,0.0,0.0,65,0.00,,,0.00,WUHU216HW,2013-02-19 07:49:00,
2013-02-19 02:54:00,38.5,27.7,30.04,North,0,0.0,0.0,65,0.00,,,0.00,WUHU216HW,2013-02-19 07:54:00,
2013-02-19 02:59:00,38.7,27.9,30.03,North,0,0.0,0.0,65,0.00,,,0.00,WUHU216HW,2013-02-19 07:59:00,
2013-02-19 03:04:00,38.7,27.9,30.03,North,0,0.0,0.0,65,0.00,,,0.00,WUHU216HW,2013-02-19 08:04:00,
2013-02-19 03:09:00,38.9,28.0,30.03,North,0,0.0,0.0,65,0.00,,,0.00,WUHU216HW,2013-02-19 08:09:00,
2013-02-19 03:14:00,38.9,28.0,30.03,North,0,0.0,0.0,65,0.00,,,0.00,WUHU216HW,2013-02-19 08:14:00,
2013-02-19 03:19:00,39.1,28.2,30.03,North,0,0.0,0.0,65,0.00,,,0.00,WUHU216HW,2013-02-19 08:19:00,
2013-02-19 03:24:00,39.1,27.8,30.03,North,0,0.0,0.0,64,0.00,,,0.00,WUHU216HW,2013-02-19 08:24:00,
2013-02-19 03:29:00,39.1,27.8,30.03,North,0,0.0,0.0,64,0.00,,,0.00,WUHU216HW,2013-02-19 08:29:00,
2013-02-19 03:35:00,39.2,28.0,30.02,North,0,0.0,0.0,64,0.00,,,0.00,WUHU216HW,2013-02-19 08:35:00,
2013-02-19 03:40:00,39.2,28.0,30.01,North,0,0.0,0.0,64,0.00,,,0.00,WUHU216HW,2013-02-19 08:40:00,
2013-02-19 03:45:00,39.2,28.0,30.01,North,0,0.0,0.0,64,0.00,,,0.00,WUHU216HW,2013-02-19 08:45:00,
2013-02-19 03:50:00,39.2,28.0,30.01,North,0,0.0,0.0,64,0.00,,,0.00,WUHU216HW,2013-02-19 08:50:00,
2013-02-19 03:55:00,39.2,28.0,30.01,North,0,0.0,0.0,64,0.00,,,0.00,WUHU216HW,2013-02-19 08:55:00,
2013-02-19 04:00:00,39.4,28.2,30.00,North,0,0.0,0.0,64,0.00,,,0.00,WUHU216HW,2013-02-19 09:00:00,
2013-02-19 04:05:00,39.4,28.2,30.01,North,0,0.0,0.0,64,0.00,,,0.00,WUHU216HW,2013-02-19 09:05:00,
2013-02-19 04:10:00,39.6,28.4,30.01,North,0,0.0,0.0,64,0.00,,,0.00,WUHU216HW,2013-02-19 09:10:00,
2013-02-19 04:15:00,39.6,28.4,30.01,North,0,0.0,0.0,64,0.00,,,0.00,WUHU216HW,2013-02-19 09:15:00,
2013-02-19 04:20:00,39.6,28.4,30.00,North,0,0.0,0.0,64,0.00,,,0.00,WUHU216HW,2013-02-19 09:20:00,
2013-02-19 04:25:00,39.6,28.4,30.00,North,0,0.0,0.0,64,0.00,,,0.00,WUHU216HW,2013-02-19 09:25:00,
2013-02-19 04:30:00,39.6,28.4,30.00,North,0,0.0,0.0,64,0.00,,,0.00,WUHU216HW,2013-02-19 09:30:00,
2013-02-19 04:35:00,39.8,28.5,30.00,North,0,0.0,0.0,64,0.00,,,0.00,WUHU216HW,2013-02-19 09:35:00,
2013-02-19 04:40:00,39.8,28.5,30.00,North,0,0.0,0.0,64,0.00,,,0.00,WUHU216HW,2013-02-19 09:40:00,
2013-02-19 04:45:00,40.0,28.7,30.01,North,0,0.0,0.0,64,0.00,,,0.00,WUHU216HW,2013-02-19 09:45:00,
2013-02-19 04:50:00,40.0,29.1,30.01,North,0,0.0,0.0,65,0.00,,,0.00,WUHU216HW,2013-02-19 09:50:00,
2013-02-19 04:55:00,40.0,29.1,30.00,North,0,0.0,0.0,65,0.00,,,0.00,WUHU216HW,2013-02-19 09:55:00,
2013-02-19 05:00:00,40.1,29.3,30.00,North,0,0.0,0.0,65,0.00,,,0.00,WUHU216HW,2013-02-19 10:00:00,
2013-02-19 05:05:00,40.1,29.3,30.00,North,0,0.0,0.0,65,0.00,,,0.00,WUHU216HW,2013-02-19 10:05:00,
2013-02-19 05:10:00,40.3,29.4,30.01,North,0,0.0,0.0,65,0.00,,,0.00,WUHU216HW,2013-02-19 10:10:00,
2013-02-19 05:15:00,40.3,29.8,30.01,North,0,0.0,0.0,66,0.00,,,0.00,WUHU216HW,2013-02-19 10:15:00,
2013-02-19 05:21:00,40.5,29.6,30.00,North,0,0.0,0.0,65,0.00,,,0.00,WUHU216HW,2013-02-19 10:21:00,
2013-02-19 05:26:00,40.5,29.6,30.00,North,0,0.0,0.0,65,0.00,,,0.00,WUHU216HW,2013-02-19 10:26:00,
2013-02-19 05:31:00,40.7,29.8,30.00,North,0,0.0,0.0,65,0.00,,,0.00,WUHU216HW,2013-02-19 10:31:00,
2013-02-19 05:36:00,40.7,29.8,30.00,North,0,0.0,0.0,65,0.00,,,0.00,WUHU216HW,2013-02-19 10:36:00,
2013-02-19 05:41:00,40.7,29.8,30.00,North,0,0.0,0.0,65,0.00,,,0.00,WUHU216HW,2013-02-19 10:41:00,
2013-02-19 05:46:00,40.7,29.8,30.00,North,0,0.0,0.0,65,0.00,,,0.00,WUHU216HW,2013-02-19 10:46:00,
2013-02-19 05:51:00,40.9,30.0,29.99,North,0,0.0,0.0,65,0.00,,,0.00,WUHU216HW,2013-02-19 10:51:00,
2013-02-19 05:56:00,40.9,30.0,29.99,North,0,0.0,0.0,65,0.00,,,0.00,WUHU216HW,2013-02-19 10:56:00,
2013-02-19 06:01:00,40.9,30.0,29.99,North,0,0.0,0.0,65,0.00,,,0.00,WUHU216HW,2013-02-19 11:01:00,
2013-02-19 06:06:00,40.9,30.0,29.99,North,0,0.0,0.0,65,0.00,,,0.00,WUHU216HW,2013-02-19 11:06:00,
2013-02-19 06:11:00,41.0,30.5,29.99,North,0,0.0,0.0,66,0.00,,,0.00,WUHU216HW,2013-02-19 11:11:00,
2013-02-19 06:16:00,41.0,30.5,29.99,North,0,0.0,0.0,66,0.00,,,0.00,WUHU216HW,2013-02-19 11:16:00,
2013-02-19 06:21:00,41.0,30.5,29.99,North,0,0.0,0.0,66,0.00,,,0.00,WUHU216HW,2013-02-19 11:21:00,
2013-02-19 06:26:00,41.0,30.5,29.99,North,0,0.0,0.0,66,0.00,,,0.00,WUHU216HW,2013-02-19 11:26:00,
2013-02-19 06:31:00,41.2,30.7,29.99,North,0,0.0,0.0,66,0.00,,,0.00,WUHU216HW,2013-02-19 11:31:00,
2013-02-19 06:36:00,41.2,30.7,29.99,North,0,0.0,0.0,66,0.00,,,0.00,WUHU216HW,2013-02-19 11:36:00,
2013-02-19 06:41:00,41.2,30.3,29.99,North,0,0.0,0.0,65,0.00,,,0.00,WUHU216HW,2013-02-19 11:41:00,
2013-02-19 06:47:00,41.4,30.9,29.99,North,0,0.0,0.0,66,0.00,,,0.00,WUHU216HW,2013-02-19 11:47:00,
2013-02-19 06:52:00,41.4,30.9,29.99,North,0,0.0,0.0,66,0.00,,,0.00,WUHU216HW,2013-02-19 11:52:00,
2013-02-19 06:57:00,41.4,30.9,29.98,North,0,0.0,0.0,66,0.00,,,0.00,WUHU216HW,2013-02-19 11:57:00,
2013-02-19 07:02:00,41.4,30.5,29.98,North,0,0.0,0.0,65,0.00,,,0.00,WUHU216HW,2013-02-19 12:02:00,
2013-02-19 07:07:00,41.4,30.9,29.98,North,0,0.0,0.0,66,0.00,,,0.00,WUHU216HW,2013-02-19 12:07:00,
2013-02-19 07:12:00,41.4,30.9,29.98,North,0,0.0,0.0,66,0.00,,,0.00,WUHU216HW,2013-02-19 12:12:00,
2013-02-19 07:17:00,41.4,30.9,29.98,North,0,0.0,0.0,66,0.00,,,0.00,WUHU216HW,2013-02-19 12:17:00,
2013-02-19 07:22:00,41.4,30.9,29.99,North,0,0.0,0.0,66,0.00,,,0.00,WUHU216HW,2013-02-19 12:22:00,
2013-02-19 07:27:00,41.4,30.9,29.99,North,0,0.0,0.0,66,0.00,,,0.00,WUHU216HW,2013-02-19 12:27:00,
2013-02-19 07:32:00,41.4,31.2,29.99,North,0,0.0,0.0,67,0.00,,,0.00,WUHU216HW,2013-02-19 12:32:00,
2013-02-19 07:37:00,41.4,31.2,30.00,North,0,0.0,0.0,67,0.00,,,0.00,WUHU216HW,2013-02-19 12:37:00,
2013-02-19 07:42:00,41.4,31.2,30.00,North,0,0.0,0.0,67,0.00,,,0.00,WUHU216HW,2013-02-19 12:42:00,
2013-02-19 07:47:00,41.4,31.7,29.99,North,0,0.0,0.0,68,0.00,,,0.00,WUHU216HW,2013-02-19 12:47:00,
2013-02-19 07:52:00,41.0,31.7,29.99,North,0,0.0,0.0,69,0.00,,,0.00,WUHU216HW,2013-02-19 12:52:00,
2013-02-19 07:57:00,41.0,31.7,29.99,North,0,0.0,0.0,69,0.00,,,0.00,WUHU216HW,2013-02-19 12:57:00,
2013-02-19 08:02:00,40.9,31.9,29.98,North,0,0.0,0.0,70,0.00,,,0.00,WUHU216HW,2013-02-19 13:02:00,
2013-02-19 08:08:00,40.9,32.2,29.98,North,0,0.0,0.0,71,0.00,,,0.00,WUHU216HW,2013-02-19 13:08:00,
2013-02-19 08:13:00,40.7,32.1,29.99,North,0,0.0,0.0,71,0.00,,,0.00,WUHU216HW,2013-02-19 13:13:00,
2013-02-19 08:18:00,40.7,32.3,29.99,North,0,0.0,0.0,72,0.00,,,0.00,WUHU216HW,2013-02-19 13:18:00,
2013-02-19 08:23:00,40.5,32.1,29.98,North,0,0.0,0.0,72,0.00,,,0.00,WUHU216HW,2013-02-19 13:23:00,
2013-02-19 08:28:00,40.3,32.3,29.97,North,0,0.0,0.0,73,0.00,,,0.00,WUHU216HW,2013-02-19 13:28:00,
2013-02-19 08:33:00,40.3,32.3,29.97,North,0,0.0,0.0,73,0.00,,,0.00,WUHU216HW,2013-02-19 13:33:00,
2013-02-19 08:38:00,40.3,32.7,29.98,North,0,0.0,0.0,74,0.00,,,0.00,WUHU216HW,2013-02-19 13:38:00,
2013-02-19 08:43:00,40.3,32.7,29.98,North,0,0.0,0.0,74,0.00,,,0.00,WUHU216HW,2013-02-19 13:43:00,
2013-02-19 08:48:00,40.3,32.9,29.98,North,0,0.0,0.0,75,0.00,,,0.00,WUHU216HW,2013-02-19 13:48:00,
2013-02-19 08:53:00,40.3,32.9,29.98,North,0,0.0,0.0,75,0.00,,,0.00,WUHU216HW,2013-02-19 13:53:00,
2013-02-19 08:58:00,40.5,33.5,29.99,North,0,0.0,0.0,76,0.00,,,0.00,WUHU216HW,2013-02-19 13:58:00,
2013-02-19 09:03:00,40.5,33.5,29.98,North,0,0.0,0.0,76,0.00,,,0.00,WUHU216HW,2013-02-19 14:03:00,
2013-02-19 09:08:00,40.5,33.5,29.97,North,0,0.0,0.0,76,0.00,,,0.00,WUHU216HW,2013-02-19 14:08:00,
2013-02-19 09:13:00,40.7,33.9,29.97,North,0,0.0,0.0,77,0.00,,,0.00,WUHU216HW,2013-02-19 14:13:00,
2013-02-19 09:19:00,40.7,33.9,29.97,North,0,0.0,0.0,77,0.00,,,0.00,WUHU216HW,2013-02-19 14:19:00,
2013-02-19 09:23:00,40.7,33.9,29.96,North,0,0.0,0.0,77,0.00,,,0.00,WUHU216HW,2013-02-19 14:23:00,
2013-02-19 09:29:00,40.7,33.9,29.96,North,0,0.0,0.0,77,0.00,,,0.00,WUHU216HW,2013-02-19 14:29:00,
2013-02-19 09:34:00,40.7,33.9,29.96,North,0,0.0,0.0,77,0.00,,,0.00,WUHU216HW,2013-02-19 14:34:00,
2013-02-19 09:39:00,40.7,33.9,29.96,North,0,0.0,0.0,77,0.00,,,0.00,WUHU216HW,2013-02-19 14:39:00,
2013-02-19 09:44:00,41.0,34.7,29.96,North,0,0.0,0.0,78,0.00,,,0.00,WUHU216HW,2013-02-19 14:44:00,
2013-02-19 09:49:00,41.0,34.7,29.95,North,0,0.0,0.0,78,0.00,,,0.00,WUHU216HW,2013-02-19 14:49:00,
2013-02-19 09:54:00,41.2,34.8,29.95,North,0,0.0,0.0,78,0.00,,,0.00,WUHU216HW,2013-02-19 14:54:00,
2013-02-19 09:59:00,41.2,34.8,29.94,North,0,0.0,0.0,78,0.00,,,0.00,WUHU216HW,2013-02-19 14:59:00,
2013-02-19 10:04:00,41.4,35.0,29.94,North,0,0.0,0.0,78,0.00,,,0.00,WUHU216HW,2013-02-19 15:04:00,
2013-02-19 10:09:00,41.4,35.3,29.94,North,0,0.0,0.0,79,0.00,,,0.00,WUHU216HW,2013-02-19 15:09:00,
2013-02-19 10:14:00,41.4,35.3,29.94,North,0,0.0,0.0,79,0.00,,,0.00,WUHU216HW,2013-02-19 15:14:00,
2013-02-19 10:19:00,41.6,35.5,29.94,North,0,0.0,0.0,79,0.00,,,0.00,WUHU216HW,2013-02-19 15:19:00,
2013-02-19 10:24:00,41.6,35.5,29.94,North,0,0.0,0.0,79,0.00,,,0.00,WUHU216HW,2013-02-19 15:24:00,
2013-02-19 10:30:00,41.8,35.6,29.93,North,0,0.0,0.0,79,0.00,,,0.00,WUHU216HW,2013-02-19 15:30:00,
2013-02-19 10:35:00,41.9,35.8,29.93,North,0,0.0,0.0,79,0.00,,,0.00,WUHU216HW,2013-02-19 15:35:00,
2013-02-19 10:40:00,41.9,35.8,29.93,North,0,0.0,0.0,79,0.00,,,0.00,WUHU216HW,2013-02-19 15:40:00,
2013-02-19 10:45:00,42.1,36.4,29.93,North,0,0.0,0.0,80,0.00,,,0.00,WUHU216HW,2013-02-19 15:45:00,
2013-02-19 10:50:00,42.1,36.4,29.92,North,0,0.0,0.0,80,0.00,,,0.00,WUHU216HW,2013-02-19 15:50:00,
2013-02-19 10:55:00,42.1,36.4,29.92,North,0,0.0,0.0,80,0.00,,,0.00,WUHU216HW,2013-02-19 15:55:00,
2013-02-19 11:00:00,42.3,36.5,29.92,North,0,0.0,0.0,80,0.00,,,0.00,WUHU216HW,2013-02-19 16:00:00,
2013-02-19 11:05:00,42.5,36.7,29.93,North,0,0.0,0.0,80,0.00,,,0.00,WUHU216HW,2013-02-19 16:05:00,
2013-02-19 11:10:00,42.5,37.0,29.92,North,0,0.0,0.0,81,0.00,,,0.00,WUHU216HW,2013-02-19 16:10:00,
2013-02-19 11:15:00,42.5,37.0,29.92,North,0,0.0,0.0,81,0.00,,,0.00,WUHU216HW,2013-02-19 16:15:00,
2013-02-19 11:20:00,42.7,37.2,29.92,North,0,0.0,0.0,81,0.00,,,0.00,WUHU216HW,2013-02-19 16:20:00,
2013-02-19 11:26:00,42.8,37.4,29.92,North,0,0.0,0.0,81,0.00,,,0.00,WUHU216HW,2013-02-19 16:26:00,
2013-02-19 11:31:00,42.8,37.4,29.92,North,0,0.0,0.0,81,0.00,,,0.00,WUHU216HW,2013-02-19 16:31:00,
2013-02-19 11:36:00,42.8,37.4,29.92,North,0,0.0,0.0,81,0.00,,,0.00,WUHU216HW,2013-02-19 16:36:00,
2013-02-19 11:41:00,43.0,37.5,29.91,North,0,0.0,0.0,81,0.00,,,0.00,WUHU216HW,2013-02-19 16:41:00,
2013-02-19 11:46:00,43.2,37.7,29.90,North,0,0.0,0.0,81,0.00,,,0.00,WUHU216HW,2013-02-19 16:46:00,
2013-02-19 11:51:00,43.2,37.7,29.90,North,0,0.0,0.0,81,0.00,,,0.00,WUHU216HW,2013-02-19 16:51:00,
2013-02-19 11:56:00,43.4,37.9,29.90,North,0,0.0,0.0,81,0.00,,,0.00,WUHU216HW,2013-02-19 16:56:00,
2013-02-19 12:01:00,43.4,37.9,29.90,North,0,0.0,0.0,81,0.00,,,0.00,WUHU216HW,2013-02-19 17:01:00,
2013-02-19 12:06:00,43.6,38.4,29.89,North,0,0.0,0.0,82,0.00,,,0.00,WUHU216HW,2013-02-19 17:06:00,
2013-02-19 12:12:00,43.7,38.6,29.89,North,0,0.0,0.0,82,0.00,,,0.00,WUHU216HW,2013-02-19 17:12:00,
2013-02-19 12:17:00,43.9,38.8,29.89,North,0,0.0,0.0,82,0.00,,,0.00,WUHU216HW,2013-02-19 17:17:00,
2013-02-19 12:22:00,43.9,38.8,29.88,North,0,0.0,0.0,82,0.00,,,0.00,WUHU216HW,2013-02-19 17:22:00,
2013-02-19 12:27:00,44.1,39.0,29.88,North,0,0.0,0.0,82,0.00,,,0.00,WUHU216HW,2013-02-19 17:27:00,
2013-02-19 12:32:00,44.3,39.2,29.87,North,0,0.0,0.0,82,0.00,,,0.00,WUHU216HW,2013-02-19 17:32:00,
2013-02-19 12:37:00,44.3,39.2,29.87,North,0,0.0,0.0,82,0.00,,,0.00,WUHU216HW,2013-02-19 17:37:00,
2013-02-19 12:42:00,44.3,39.2,29.87,North,0,0.0,0.0,82,0.00,,,0.00,WUHU216HW,2013-02-19 17:42:00,
2013-02-19 12:47:00,44.6,39.8,29.86,North,0,0.0,0.0,83,0.00,,,0.00,WUHU216HW,2013-02-19 17:47:00,
2013-02-19 12:52:00,44.6,39.8,29.86,North,0,0.0,0.0,83,0.00,,,0.00,WUHU216HW,2013-02-19 17:52:00,
2013-02-19 12:57:00,45.0,40.1,29.85,North,0,0.0,0.0,83,0.00,,,0.00,WUHU216HW,2013-02-19 17:57:00,
2013-02-19 13:02:00,45.2,40.3,29.85,North,0,0.0,0.0,83,0.00,,,0.00,WUHU216HW,2013-02-19 18:02:00,
2013-02-19 13:08:00,45.4,40.9,29.84,North,0,0.0,0.0,84,0.00,,,0.00,WUHU216HW,2013-02-19 18:08:00,
2013-02-19 13:13:00,45.7,41.2,29.84,North,0,0.0,0.0,84,0.00,,,0.00,WUHU216HW,2013-02-19 18:13:00,
2013-02-19 13:18:00,45.9,41.4,29.83,North,0,0.0,0.0,84,0.00,,,0.00,WUHU216HW,2013-02-19 18:18:00,
2013-02-19 13:23:00,46.1,41.6,29.83,North,0,0.0,0.0,84,0.00,,,0.00,WUHU216HW,2013-02-19 18:23:00,
2013-02-19 13:28:00,46.4,42.0,29.83,North,0,0.0,0.0,84,0.00,,,0.00,WUHU216HW,2013-02-19 18:28:00,
2013-02-19 13:33:00,46.4,42.0,29.83,North,0,0.0,0.0,84,0.00,,,0.00,WUHU216HW,2013-02-19 18:33:00,
2013-02-19 13:38:00,46.6,42.0,29.83,North,0,0.0,0.0,84,0.00,,,0.00,WUHU216HW,2013-02-19 18:38:00,
2013-02-19 13:43:00,46.8,42.0,29.83,North,0,0.0,0.0,83,0.00,,,0.00,WUHU216HW,2013-02-19 18:43:00,
2013-02-19 13:48:00,47.0,42.4,29.83,North,0,0.0,0.0,84,0.00,,,0.00,WUHU216HW,2013-02-19 18:48:00,
2013-02-19 13:53:00,47.2,42.3,29.82,North,0,0.0,0.0,83,0.00,,,0.00,WUHU216HW,2013-02-19 18:53:00,
2013-02-19 13:58:00,47.3,42.5,29.82,North,0,0.0,0.0,83,0.00,,,0.00,WUHU216HW,2013-02-19 18:58:00,
2013-02-19 14:04:00,47.5,42.6,29.82,North,0,0.0,0.0,83,0.00,,,0.00,WUHU216HW,2013-02-19 19:04:00,
2013-02-19 14:09:00,47.5,42.6,29.82,North,0,0.0,0.0,83,0.00,,,0.00,WUHU216HW,2013-02-19 19:09:00,
2013-02-19 14:14:00,47.7,42.8,29.82,North,0,0.0,0.0,83,0.00,,,0.00,WUHU216HW,2013-02-19 19:14:00,
2013-02-19 14:19:00,47.9,42.9,29.82,North,0,0.0,0.0,83,0.00,,,0.00,WUHU216HW,2013-02-19 19:19:00,
2013-02-19 14:24:00,47.9,42.9,29.82,North,0,0.0,0.0,83,0.00,,,0.00,WUHU216HW,2013-02-19 19:24:00,
2013-02-19 14:29:00,47.9,42.9,29.81,North,0,0.0,0.0,83,0.00,,,0.00,WUHU216HW,2013-02-19 19:29:00,
2013-02-19 14:34:00,48.1,43.1,29.81,North,0,0.0,0.0,83,0.00,,,0.00,WUHU216HW,2013-02-19 19:34:00,
2013-02-19 14:39:00,48.2,43.3,29.81,North,0,0.0,0.0,83,0.00,,,0.00,WUHU216HW,2013-02-19 19:39:00,
2013-02-19 14:44:00,48.2,43.3,29.81,North,0,0.0,0.0,83,0.00,,,0.00,WUHU216HW,2013-02-19 19:44:00,
2013-02-19 14:49:00,48.6,43.9,29.81,North,0,0.0,0.0,84,0.00,,,0.00,WUHU216HW,2013-02-19 19:49:00,
2013-02-19 14:54:00,48.8,44.1,29.80,North,0,0.0,0.0,84,0.00,,,0.00,WUHU216HW,2013-02-19 19:54:00,
2013-02-19 14:59:00,48.8,43.8,29.80,North,0,0.0,0.0,83,0.00,,,0.00,WUHU216HW,2013-02-19 19:59:00,
2013-02-19 15:04:00,49.0,44.0,29.80,North,0,0.0,0.0,83,0.00,,,0.00,WUHU216HW,2013-02-19 20:04:00,
2013-02-19 15:09:00,49.0,44.0,29.80,North,0,0.0,0.0,83,0.00,,,0.00,WUHU216HW,2013-02-19 20:09:00,
2013-02-19 15:15:00,49.1,44.1,29.79,North,0,0.0,0.0,83,0.00,,,0.00,WUHU216HW,2013-02-19 20:15:00,
2013-02-19 15:20:00,49.3,44.3,29.79,North,0,0.0,0.0,83,0.00,,,0.00,WUHU216HW,2013-02-19 20:20:00,
2013-02-19 15:25:00,49.3,44.0,29.79,North,0,0.0,0.0,82,0.00,,,0.00,WUHU216HW,2013-02-19 20:25:00,
2013-02-19 15:30:00,49.3,44.0,29.79,North,0,0.0,0.0,82,0.00,,,0.00,WUHU216HW,2013-02-19 20:30:00,
2013-02-19 15:35:00,49.3,44.0,29.78,North,0,0.0,0.0,82,0.00,,,0.00,WUHU216HW,2013-02-19 20:35:00,
2013-02-19 15:40:00,49.3,44.0,29.78,North,0,0.0,0.0,82,0.00,,,0.00,WUHU216HW,2013-02-19 20:40:00,
2013-02-19 15:45:00,49.3,44.0,29.78,North,0,0.0,0.0,82,0.00,,,0.00,WUHU216HW,2013-02-19 20:45:00,
2013-02-19 15:50:00,49.3,44.0,29.79,North,0,0.0,0.0,82,0.00,,,0.00,WUHU216HW,2013-02-19 20:50:00,
2013-02-19 15:55:00,49.3,44.0,29.79,North,0,0.0,0.0,82,0.00,,,0.00,WUHU216HW,2013-02-19 20:55:00,
2013-02-19 16:00:00,49.3,44.0,29.79,North,0,0.0,0.0,82,0.00,,,0.00,WUHU216HW,2013-02-19 21:00:00,
2013-02-19 16:05:00,49.3,44.0,29.79,North,0,0.0,0.0,82,0.00,,,0.00,WUHU216HW,2013-02-19 21:05:00,
2013-02-19 16:10:00,49.3,44.0,29.79,North,0,0.0,0.0,82,0.00,,,0.00,WUHU216HW,2013-02-19 21:10:00,
2013-02-19 16:15:00,49.3,44.0,29.79,North,0,0.0,0.0,82,0.00,,,0.00,WUHU216HW,2013-02-19 21:15:00,
2013-02-19 16:20:00,49.3,44.0,29.79,North,0,0.0,0.0,82,0.00,,,0.00,WUHU216HW,2013-02-19 21:20:00,
2013-02-19 16:25:00,49.3,43.7,29.78,North,0,0.0,0.0,81,0.00,,,0.00,WUHU216HW,2013-02-19 21:25:00,
2013-02-19 16:30:00,49.3,44.0,29.79,North,0,0.0,0.0,82,0.00,,,0.00,WUHU216HW,2013-02-19 21:30:00,
2013-02-19 16:35:00,49.3,44.0,29.78,North,0,0.0,0.0,82,0.00,,,0.00,WUHU216HW,2013-02-19 21:35:00,
2013-02-19 16:40:00,49.3,44.0,29.78,North,0,0.0,0.0,82,0.00,,,0.00,WUHU216HW,2013-02-19 21:40:00,
2013-02-19 16:45:00,49.5,44.2,29.79,North,0,0.0,0.0,82,0.00,,,0.00,WUHU216HW,2013-02-19 21:45:00,
2013-02-19 16:50:00,49.5,43.8,29.79,North,0,0.0,0.0,81,0.00,,,0.00,WUHU216HW,2013-02-19 21:50:00,
2013-02-19 16:55:00,49.5,43.8,29.79,North,0,0.0,0.0,81,0.00,,,0.00,WUHU216HW,2013-02-19 21:55:00,
2013-02-19 17:01:00,49.7,44.0,29.79,North,0,0.0,0.0,81,0.00,,,0.00,WUHU216HW,2013-02-19 22:01:00,
2013-02-19 17:06:00,49.7,44.0,29.79,North,0,0.0,0.0,81,0.00,,,0.00,WUHU216HW,2013-02-19 22:06:00,
2013-02-19 17:11:00,49.7,44.0,29.79,North,0,0.0,0.0,81,0.00,,,0.00,WUHU216HW,2013-02-19 22:11:00,
2013-02-19 17:16:00,49.7,44.0,29.79,North,0,0.0,0.0,81,0.00,,,0.00,WUHU216HW,2013-02-19 22:16:00,
2013-02-19 17:21:00,49.7,44.0,29.79,North,0,0.0,0.0,81,0.00,,,0.00,WUHU216HW,2013-02-19 22:21:00,
2013-02-19 17:26:00,49.7,43.7,29.79,North,0,0.0,0.0,80,0.00,,,0.00,WUHU216HW,2013-02-19 22:26:00,
2013-02-19 17:31:00,49.7,43.7,29.79,North,0,0.0,0.0,80,0.00,,,0.00,WUHU216HW,2013-02-19 22:31:00,
2013-02-19 17:36:00,49.7,43.7,29.80,North,0,0.0,0.0,80,0.00,,,0.00,WUHU216HW,2013-02-19 22:36:00,
2013-02-19 17:41:00,49.5,43.6,29.80,North,0,0.0,0.0,80,0.00,,,0.00,WUHU216HW,2013-02-19 22:41:00,
2013-02-19 17:46:00,49.3,43.4,29.80,North,0,0.0,0.0,80,0.00,,,0.00,WUHU216HW,2013-02-19 22:46:00,
2013-02-19 17:51:00,49.3,43.4,29.80,North,0,0.0,0.0,80,0.00,,,0.00,WUHU216HW,2013-02-19 22:51:00,
2013-02-19 17:56:00,49.1,43.2,29.81,North,0,0.0,0.0,80,0.00,,,0.00,WUHU216HW,2013-02-19 22:56:00,
2013-02-19 18:01:00,49.0,43.0,29.81,North,0,0.0,0.0,80,0.00,,,0.00,WUHU216HW,2013-02-19 23:01:00,
2013-02-19 18:06:00,48.8,42.8,29.81,North,0,0.0,0.0,80,0.00,,,0.00,WUHU216HW,2013-02-19 23:06:00,
2013-02-19 18:11:00,48.8,42.8,29.82,North,0,0.0,0.0,80,0.00,,,0.00,WUHU216HW,2013-02-19 23:11:00,
2013-02-19 18:17:00,48.6,42.7,29.82,North,0,0.0,0.0,80,0.00,,,0.00,WUHU216HW,2013-02-19 23:17:00,
2013-02-19 18:22:00,48.4,42.5,29.83,North,0,0.0,0.0,80,0.00,,,0.00,WUHU216HW,2013-02-19 23:22:00,
2013-02-19 18:27:00,48.2,42.3,29.83,North,0,0.0,0.0,80,0.00,,,0.00,WUHU216HW,2013-02-19 23:27:00,
2013-02-19 18:32:00,47.9,41.9,29.83,North,0,0.0,0.0,80,0.00,,,0.00,WUHU216HW,2013-02-19 23:32:00,
2013-02-19 18:37:00,47.9,41.9,29.83,North,0,0.0,0.0,80,0.00,,,0.00,WUHU216HW,2013-02-19 23:37:00,
2013-02-19 18:42:00,47.5,41.7,29.83,North,0,0.0,0.0,80,0.00,,,0.00,WUHU216HW,2013-02-19 23:42:00,
2013-02-19 18:47:00,47.3,41.5,29.83,North,0,0.0,0.0,80,0.00,,,0.00,WUHU216HW,2013-02-19 23:47:00,
2013-02-19 18:53:00,47.2,41.3,29.83,North,0,0.0,0.0,80,0.00,,,0.00,WUHU216HW,2013-02-19 23:53:00,
2013-02-19 18:58:00,47.0,40.9,29.84,North,0,0.0,0.0,79,0.00,,,0.00,WUHU216HW,2013-02-19 23:58:00,
2013-02-19 19:03:00,46.6,40.9,29.84,North,0,0.0,0.0,80,0.00,,,0.00,WUHU216HW,2013-02-20 00:03:00,
2013-02-19 19:08:00,46.4,40.7,29.84,North,0,0.0,0.0,80,0.00,,,0.00,WUHU216HW,2013-02-20 00:08:00,
2013-02-19 19:13:00,46.3,40.5,29.84,North,0,0.0,0.0,80,0.00,,,0.00,WUHU216HW,2013-02-20 00:13:00,
2013-02-19 19:18:00,46.1,40.3,29.85,North,0,0.0,0.0,80,0.00,,,0.00,WUHU216HW,2013-02-20 00:18:00,
2013-02-19 19:23:00,45.7,40.0,29.85,North,0,0.0,0.0,80,0.00,,,0.00,WUHU216HW,2013-02-20 00:23:00,
2013-02-19 19:28:00,45.7,40.0,29.85,North,0,0.0,0.0,80,0.00,,,0.00,WUHU216HW,2013-02-20 00:28:00,
2013-02-19 19:33:00,45.4,39.6,29.85,North,0,0.0,0.0,80,0.00,,,0.00,WUHU216HW,2013-02-20 00:33:00,
2013-02-19 19:38:00,45.4,39.6,29.85,North,0,0.0,0.0,80,0.00,,,0.00,WUHU216HW,2013-02-20 00:38:00,
2013-02-19 19:43:00,45.0,39.2,29.85,North,0,0.0,0.0,80,0.00,,,0.00,WUHU216HW,2013-02-20 00:43:00,
2013-02-19 19:48:00,45.0,39.5,29.85,North,0,0.0,0.0,81,0.00,,,0.00,WUHU216HW,2013-02-20 00:48:00,
2013-02-19 19:53:00,44.6,39.2,29.85,North,0,0.0,0.0,81,0.00,,,0.00,WUHU216HW,2013-02-20 00:53:00,
2013-02-19 19:58:00,44.5,39.0,29.85,North,0,0.0,0.0,81,0.00,,,0.00,WUHU216HW,2013-02-20 00:58:00,
2013-02-19 20:03:00,44.3,38.8,29.85,North,0,0.0,0.0,81,0.00,,,0.00,WUHU216HW,2013-02-20 01:03:00,
2013-02-19 20:08:00,44.3,38.8,29.85,North,0,0.0,0.0,81,0.00,,,0.00,WUHU216HW,2013-02-20 01:08:00,
2013-02-19 20:13:00,44.1,38.6,29.85,North,0,0.0,0.0,81,0.00,,,0.00,WUHU216HW,2013-02-20 01:13:00,
2013-02-19 20:18:00,43.9,38.4,29.85,North,0,0.0,0.0,81,0.00,,,0.00,WUHU216HW,2013-02-20 01:18:00,
2013-02-19 20:23:00,43.6,38.1,29.85,North,0,0.0,0.0,81,0.00,,,0.00,WUHU216HW,2013-02-20 01:23:00,
2013-02-19 20:29:00,43.4,37.9,29.86,North,0,0.0,0.0,81,0.00,,,0.00,WUHU216HW,2013-02-20 01:29:00,
2013-02-19 20:34:00,43.2,37.7,29.86,North,0,0.0,0.0,81,0.00,,,0.00,WUHU216HW,2013-02-20 01:34:00,
2013-02-19 20:39:00,43.0,37.5,29.86,North,0,0.0,0.0,81,0.00,,,0.00,WUHU216HW,2013-02-20 01:39:00,
2013-02-19 20:44:00,42.8,37.4,29.86,North,0,0.0,0.0,81,0.00,,,0.00,WUHU216HW,2013-02-20 01:44:00,
2013-02-19 20:49:00,42.8,37.7,29.86,North,0,0.0,0.0,82,0.00,,,0.00,WUHU216HW,2013-02-20 01:49:00,
2013-02-19 20:54:00,42.8,37.7,29.86,North,0,0.0,0.0,82,0.00,,,0.00,WUHU216HW,2013-02-20 01:54:00,
2013-02-19 20:59:00,42.8,37.4,29.86,North,0,0.0,0.0,81,0.00,,,0.00,WUHU216HW,2013-02-20 01:59:00,
2013-02-19 21:04:00,42.5,37.0,29.87,North,0,0.0,0.0,81,0.00,,,0.00,WUHU216HW,2013-02-20 02:04:00,
2013-02-19 21:09:00,42.5,37.0,29.87,North,0,0.0,0.0,81,0.00,,,0.00,WUHU216HW,2013-02-20 02:09:00,
2013-02-19 21:14:00,42.3,36.8,29.87,North,0,0.0,0.0,81,0.00,,,0.00,WUHU216HW,2013-02-20 02:14:00,
2013-02-19 21:19:00,42.1,36.6,29.87,North,0,0.0,0.0,81,0.00,,,0.00,WUHU216HW,2013-02-20 02:19:00,
2013-02-19 21:24:00,42.1,36.6,29.88,North,0,0.0,0.0,81,0.00,,,0.00,WUHU216HW,2013-02-20 02:24:00,
2013-02-19 21:29:00,41.9,36.5,29.88,North,0,0.0,0.0,81,0.00,,,0.00,WUHU216HW,2013-02-20 02:29:00,
2013-02-19 21:34:00,41.6,36.1,29.89,North,0,0.0,0.0,81,0.00,,,0.00,WUHU216HW,2013-02-20 02:34:00,
2013-02-19 21:39:00,41.4,35.9,29.88,North,0,0.0,0.0,81,0.00,,,0.00,WUHU216HW,2013-02-20 02:39:00,
2013-02-19 21:44:00,41.4,35.9,29.89,North,0,0.0,0.0,81,0.00,,,0.00,WUHU216HW,2013-02-20 02:44:00,
2013-02-19 21:49:00,41.0,35.9,29.89,North,0,0.0,0.0,82,0.00,,,0.00,WUHU216HW,2013-02-20 02:49:00,
2013-02-19 21:54:00,40.9,35.7,29.89,North,0,0.0,0.0,82,0.00,,,0.00,WUHU216HW,2013-02-20 02:54:00,
2013-02-19 21:59:00,40.9,35.7,29.89,North,0,0.0,0.0,82,0.00,,,0.00,WUHU216HW,2013-02-20 02:59:00,
2013-02-19 22:04:00,40.7,35.6,29.89,North,0,0.0,0.0,82,0.00,,,0.00,WUHU216HW,2013-02-20 03:04:00,
2013-02-19 22:09:00,40.5,35.4,29.89,North,0,0.0,0.0,82,0.00,,,0.00,WUHU216HW,2013-02-20 03:09:00,
2013-02-19 22:14:00,40.5,35.4,29.89,North,0,0.0,0.0,82,0.00,,,0.00,WUHU216HW,2013-02-20 03:14:00,
2013-02-19 22:19:00,40.3,35.2,29.89,North,0,0.0,0.0,82,0.00,,,0.00,WUHU216HW,2013-02-20 03:19:00,
2013-02-19 22:24:00,40.1,35.1,29.89,North,0,0.0,0.0,82,0.00,,,0.00,WUHU216HW,2013-02-20 03:24:00,
2013-02-19 22:29:00,40.0,34.6,29.90,North,0,0.0,0.0,81,0.00,,,0.00,WUHU216HW,2013-02-20 03:29:00,
2013-02-19 22:34:00,39.8,34.5,29.90,North,0,0.0,0.0,81,0.00,,,0.00,WUHU216HW,2013-02-20 03:34:00,
2013-02-19 22:39:00,39.6,34.3,29.89,North,0,0.0,0.0,81,0.00,,,0.00,WUHU216HW,2013-02-20 03:39:00,
2013-02-19 22:44:00,39.4,34.1,29.89,North,0,0.0,0.0,81,0.00,,,0.00,WUHU216HW,2013-02-20 03:44:00,
2013-02-19 22:49:00,39.4,34.1,29.89,North,0,0.0,0.0,81,0.00,,,0.00,WUHU216HW,2013-02-20 03:49:00,
2013-02-19 22:54:00,39.2,33.9,29.90,North,0,0.0,0.0,81,0.00,,,0.00,WUHU216HW,2013-02-20 03:54:00,
2013-02-19 22:59:00,39.2,33.9,29.89,North,0,0.0,0.0,81,0.00,,,0.00,WUHU216HW,2013-02-20 03:59:00,
2013-02-19 23:04:00,39.2,33.9,29.90,North,0,0.0,0.0,81,0.00,,,0.00,WUHU216HW,2013-02-20 04:04:00,
2013-02-19 23:09:00,39.2,34.2,29.90,North,0,0.0,0.0,82,0.00,,,0.00,WUHU216HW,2013-02-20 04:09:00,
2013-02-19 23:14:00,39.2,33.9,29.90,North,0,0.0,0.0,81,0.00,,,0.00,WUHU216HW,2013-02-20 04:14:00,
2013-02-19 23:19:00,39.1,33.8,29.90,North,0,0.0,0.0,81,0.00,,,0.00,WUHU216HW,2013-02-20 04:19:00,
2013-02-19 23:24:00,39.1,33.8,29.90,North,0,0.0,0.0,81,0.00,,,0.00,WUHU216HW,2013-02-20 04:24:00,
2013-02-19 23:29:00,38.9,33.6,29.90,North,0,0.0,0.0,81,0.00,,,0.00,WUHU216HW,2013-02-20 04:29:00,
2013-02-19 23:34:00,38.7,33.4,29.90,North,0,0.0,0.0,81,0.00,,,0.00,WUHU216HW,2013-02-20 04:34:00,
2013-02-19 23:39:00,38.5,33.2,29.90,North,0,0.0,0.0,81,0.00,,,0.00,WUHU216HW,2013-02-20 04:39:00,
2013-02-19 23:44:00,38.5,33.2,29.90,North,0,0.0,0.0,81,0.00,,,0.00,WUHU216HW,2013-02-20 04:44:00,
2013-02-19 23:49:00,38.3,33.0,29.90,North,0,0.0,0.0,81,0.00,,,0.00,WUHU216HW,2013-02-20 04:49:00,
2013-02-19 23:54:00,38.2,32.9,29.91,North,0,0.0,0.0,81,0.00,,,0.00,WUHU216HW,2013-02-20 04:54:00,
2013-02-19 23:59:00,38.2,32.9,29.91,North,0,0.0,0.0,81,0.00,,,0.00,WUHU216HW,2013-02-20 04:59:00,